Bogota, Colombia

3:07 AM -05 on December 11, 2017 (GMT -0500)
Eldorado International

Weather History for SKBO - December, 2012

Change the Weather History Date:

Wednesday, December 12, 2012

  Actual Average Record
Temperature  
Mean Temperature 54 °F -  
Max Temperature 69 °F 66 °F 82 °F (1998)
Min Temperature 39 °F 44 °F 38 °F (2015)
Degree Days  
Heating Degree Days 11    
Growing Degree Days 4 (Base 50)    
Moisture  
Dew Point 48 °F    
Average Humidity 82    
Maximum Humidity 100    
Minimum Humidity 33    
Precipitation  
Precipitation 0.20 in 0.06 in - ()
Sea Level Pressure  
Sea Level Pressure 30.27 in    
Wind  
Wind Speed 5 mph ()    
Max Wind Speed 20 mph    
Max Gust Speed -    
Visibility 5.3 miles    
Events Fog , Rain , Thunderstorm    
Averages and records for this station are not official NWS values.
T = Trace of Precipitation, MM = Missing Value Source: Averaged Metar Reports

Daily Weather History Graph

Daily Weather History Graph

Search for Another Location

Airport or City:

Trip Planner

Search our weather history database for the weather conditions in past years. The results will help you decide how hot, cold, wet, or windy it might be!

Date:

Astronomy

Dec. 12, 2012 Rise Set
Actual Time 5:54 AM -05 5:46 PM -05
Civil Twilight 5:32 AM -05 6:08 PM -05
Nautical Twilight 5:06 AM -05 6:34 PM -05
Astronomical Twilight 4:40 AM -05 7:01 PM -05
Moon 5:01 AM -05 (12/12) 5:16 PM -05 (12/12)
Length of Visible Light 12h 36m
Length of Day
11h 51m
Waning Crescent, 1% of the Moon is Illuminated
Dec 12
Waning Crescent
Dec 13
New
Dec 20
First Quarter
Dec 28
Full
Jan 4
Last Quarter

Hourly Weather History & Observations

Time (-05) Temp. Windchill Dew Point Humidity Pressure Visibility Wind Dir Wind Speed Gust Speed Precip Events Conditions
12:00 AM 50.0 °F - 48.2 °F 94% 30.31 in 6.2 mi Variable 2.3 mph - N/A   Partly Cloudy
1:00 AM 48 °F - 46 °F 91%  in 9 mi WNW 4.5 mph - -   Scattered Clouds
1:00 AM 48.2 °F - 46.4 °F 93% 30.30 in 6.2 mi WNW 3.5 mph - N/A   Partly Cloudy
2:00 AM 46.4 °F 45.2 °F 46.4 °F 100% 30.28 in 6.2 mi WNW 3.5 mph - N/A   Partly Cloudy
3:00 AM 42.8 °F 41.1 °F 42.8 °F 100% 30.25 in 6.2 mi NNE 3.5 mph - N/A   Partly Cloudy
4:00 AM 43 °F - 42 °F 96%  in 3 mi SSW 2.2 mph - - Fog Light Fog
4:00 AM 42.8 °F - 42.8 °F 100% 30.25 in 6.2 mi Variable 2.3 mph - N/A Fog Patches of Fog
5:00 AM 42.8 °F 39.3 °F 42.8 °F 100% 30.27 in 2.5 mi WNW 5.8 mph - N/A   Partly Cloudy
5:30 AM 41.0 °F 39.0 °F 41.0 °F 100% 30.28 in 6.2 mi WNW 3.5 mph - N/A Fog Patches of Fog
6:00 AM 39.2 °F 37.0 °F 39.2 °F 100% 30.29 in 6.2 mi NNW 3.5 mph - N/A Fog Shallow Fog
6:05 AM 39.2 °F 37.0 °F 39.2 °F 100% 30.29 in 6.2 mi NW 3.5 mph - N/A   Mostly Cloudy
6:43 AM 44.6 °F 43.1 °F 44.6 °F 100% 30.30 in 6.2 mi NNW 3.5 mph - N/A   Mostly Cloudy
7:00 AM 45 °F - 45 °F 100%  in 1 mi NW 4.5 mph - - Fog Patches of Fog
7:00 AM 44.6 °F 43.1 °F 44.6 °F 100% 30.30 in 5.0 mi NW 3.5 mph - N/A Fog Patches of Fog
7:13 AM 46.4 °F 45.2 °F 46.4 °F 100% 30.31 in 3.1 mi NNW 3.5 mph - N/A   Mostly Cloudy
8:00 AM 50.0 °F - 50.0 °F 100% 30.32 in 4.3 mi NNW 3.5 mph - N/A Fog Fog
8:24 AM 55.4 °F - 50.0 °F 82% 30.33 in 6.2 mi NNE 3.5 mph - N/A   Scattered Clouds
9:00 AM 60.8 °F - 48.2 °F 63% 30.33 in 6.2 mi ENE 4.6 mph - N/A   Scattered Clouds
9:28 AM 64.4 °F - 42.8 °F 45% 30.32 in 6.2 mi NNE 6.9 mph - N/A   Scattered Clouds
10:00 AM 65 °F - 43 °F 33%  in 9 mi NNE 4.5 mph - -   Haze
10:00 AM 64.4 °F - 42.8 °F 45% 30.32 in 6.2 mi NNE 6.9 mph - N/A   Scattered Clouds
11:00 AM 68.0 °F - 42.8 °F 40% 30.30 in 6.2 mi NW 6.9 mph - N/A   Scattered Clouds
12:00 PM 69.8 °F - 42.8 °F 38% 30.27 in 6.2 mi ENE 9.2 mph - N/A   Scattered Clouds
1:00 PM 68 °F - 52 °F 45%  in 6 mi SW 20.1 mph - -   Haze
1:00 PM 68.0 °F - 51.8 °F 56% 30.24 in 5.6 mi SW 19.6 mph - N/A   Mostly Cloudy
2:00 PM 64.4 °F - 51.8 °F 64% 30.21 in 5.0 mi West 16.1 mph - N/A   Mostly Cloudy
3:00 PM 64.4 °F - 53.6 °F 68% 30.17 in 5.0 mi West 13.8 mph - N/A Thunderstorm Thunderstorm
3:36 PM 66.2 °F - 53.6 °F 64% 30.17 in 5.0 mi WNW 12.7 mph - N/A   Scattered Clouds
4:00 PM 64 °F - 54 °F 60%  in 5 mi West 13.4 mph - - Thunderstorm Thunderstorm
4:00 PM 64.4 °F - 53.6 °F 68% 30.17 in 5.0 mi West 13.8 mph - N/A Thunderstorm Thunderstorm
5:00 PM 60.8 °F - 53.6 °F 77% 30.18 in 5.0 mi West 11.5 mph - N/A Thunderstorm Thunderstorm
6:00 PM 59.0 °F - 55.4 °F 88% 30.21 in 5.0 mi West 6.9 mph - N/A Thunderstorm Thunderstorm
6:21 PM 57.2 °F - 53.6 °F 88% 30.22 in 2.5 mi North 9.2 mph - N/A   Drizzle
7:00 PM 56 °F - 54 °F 91%  in 3 mi NNE 4.5 mph - - Rain Light Drizzle
7:00 PM 55.4 °F - 53.6 °F 94% 30.24 in 3.1 mi NNE 3.5 mph - N/A   Drizzle
8:00 PM 55.4 °F - 51.8 °F 88% 30.27 in 5.0 mi East 5.8 mph - N/A   Light Drizzle
8:30 PM 53.6 °F - 51.8 °F 94% 30.29 in 5.6 mi Variable 2.3 mph - N/A   Scattered Clouds
9:00 PM 55.4 °F - 55.4 °F 100% 30.30 in 6.2 mi West 4.6 mph - N/A   Mostly Cloudy
10:00 PM 55 °F - 53 °F 89%  in 6 mi NNE 6.7 mph - -   Haze
10:00 PM 55.4 °F - 53.6 °F 94% 30.31 in 6.2 mi NNE 5.8 mph - N/A   Mostly Cloudy
11:00 PM 53.6 °F - 53.6 °F 100% 30.31 in 2.5 mi Variable 2.3 mph - N/A   Mostly Cloudy